West Palm Beach, FL

3:24 AM EST on December 08, 2019 (GMT -0500)
Palm Beach International

Weather History for KPBI - October, 2019

Change the Weather History Date:

Monday, October 7, 2019

  Actual Average Record
Temperature  
Mean Temperature 82 °F 80 °F  
Max Temperature 87 °F 86 °F 93 °F (2009)
Min Temperature 76 °F 74 °F 65 °F (1972)
Degree Days  
Heating Degree Days 0 0  
Month to date heating degree days 0 0  
Since 1 July heating degree days 0 0  
Cooling Degree Days 17 15  
Month to date cooling degree days 124 107  
Year to date cooling degree days 3833 3315  
Growing Degree Days 32 (Base 50)    
Moisture  
Dew Point 75 °F    
Average Humidity 85    
Maximum Humidity 100    
Minimum Humidity 70    
Precipitation  
Precipitation 0.59 in 0.19 in 3.75 in (1891)
Month to date precipitation 0.87 1.40  
Year to date precipitation 46.22 50.47  
Snow  
Snow 0.00 in - - ()
Month to date snowfall 0.0  
Since 1 July snowfall 0.0  
Since 1 September snowfall 0.0  
Snow Depth 0.00 in    
Sea Level Pressure  
Sea Level Pressure 29.85 in    
Wind  
Wind Speed 11 mph (SE)    
Max Wind Speed 22 mph    
Max Gust Speed 26 mph    
Visibility 9 miles    
Events Rain , Thunderstorm    
T = Trace of Precipitation, MM = Missing Value Source: NWS Daily Summary

Daily Weather History Graph

Daily Weather History Graph

Search for Another Location

Airport or City:

Astronomy

Oct. 07, 2019 Rise Set
Actual Time 7:15 AM EDT 7:00 PM EDT
Civil Twilight 6:52 AM EDT 7:23 PM EDT
Nautical Twilight 6:25 AM EDT 7:50 PM EDT
Astronomical Twilight 5:58 AM EDT 8:17 PM EDT
Moon 3:43 PM EDT (10/7) 1:46 AM EDT (10/7)
Length of Visible Light 12h 31m
Length of Day
11h 44m
Waxing Gibbous, 69% of the Moon is Illuminated
Oct 7
Waxing Gibbous
Oct 13
Full
Oct 21
Last Quarter
Oct 27
New
Nov 4
First Quarter

Hourly Weather History & Observations

Time (EDT) Temp. Heat Index Dew Point Humidity Pressure Visibility Wind Dir Wind Speed Gust Speed Precip Events Conditions
12:53 AM 80.1 °F 84.2 °F 73.0 °F 79% 29.90 in 10.0 mi East 15.0 mph - N/A   Scattered Clouds
1:53 AM 80.1 °F 85.1 °F 75.0 °F 85% 29.88 in 10.0 mi East 15.0 mph - N/A   Mostly Cloudy
2:53 AM 80.1 °F 85.1 °F 75.0 °F 85% 29.86 in 10.0 mi East 16.1 mph - N/A   Mostly Cloudy
3:53 AM 80.1 °F 84.5 °F 73.9 °F 81% 29.85 in 10.0 mi East 18.4 mph 26.5 mph 0.00 in   Mostly Cloudy
4:53 AM 80.1 °F 84.5 °F 73.9 °F 81% 29.85 in 10.0 mi ESE 12.7 mph - N/A   Scattered Clouds
5:53 AM 80.1 °F 84.2 °F 73.0 °F 79% 29.86 in 10.0 mi East 13.8 mph - N/A   Partly Cloudy
6:53 AM 80.1 °F 84.2 °F 73.0 °F 79% 29.87 in 10.0 mi East 12.7 mph - N/A   Scattered Clouds
7:53 AM 81.0 °F 86.2 °F 73.9 °F 79% 29.88 in 10.0 mi East 12.7 mph - N/A   Mostly Cloudy
8:53 AM 82.0 °F 87.9 °F 73.9 °F 76% 29.88 in 10.0 mi East 16.1 mph - N/A   Mostly Cloudy
9:53 AM 82.9 °F 89.4 °F 73.9 °F 74% 29.89 in 10.0 mi East 15.0 mph - N/A   Mostly Cloudy
10:34 AM 84.0 °F 91.2 °F 73.9 °F 72% 29.89 in 10.0 mi East 16.1 mph - N/A   Mostly Cloudy
10:53 AM 84.0 °F 91.9 °F 75.0 °F 74% 29.89 in 10.0 mi East 16.1 mph - N/A   Mostly Cloudy
11:53 AM 86.0 °F 95.1 °F 75.0 °F 70% 29.88 in 10.0 mi East 17.3 mph - N/A   Mostly Cloudy
12:22 PM 86.0 °F 95.1 °F 75.0 °F 70% 29.86 in 10.0 mi East 17.3 mph - N/A   Mostly Cloudy
12:53 PM 86.0 °F 95.1 °F 75.0 °F 70% 29.86 in 10.0 mi East 17.3 mph 26.5 mph N/A   Mostly Cloudy
1:13 PM 86.0 °F 95.1 °F 75.0 °F 70% 29.85 in 10.0 mi East 15.0 mph 23.0 mph N/A   Mostly Cloudy
1:53 PM 82.9 °F 90.2 °F 75.0 °F 77% 29.83 in 10.0 mi East 15.0 mph 20.7 mph N/A   Overcast
2:43 PM 81.0 °F 86.2 °F 73.9 °F 79% 29.81 in 8.0 mi East 10.4 mph - 0.00 in Rain , Thunderstorm Light Thunderstorms and Rain
2:53 PM 81.0 °F 86.7 °F 75.0 °F 82% 29.81 in 8.0 mi East 10.4 mph - 0.00 in Rain , Thunderstorm Light Thunderstorms and Rain
3:22 PM 80.1 °F 85.4 °F 75.9 °F 87% 29.81 in 2.0 mi SE 3.5 mph - 0.07 in Rain , Thunderstorm Light Thunderstorms and Rain
3:53 PM 78.1 °F - 75.0 °F 90% 29.81 in 1.5 mi South 5.8 mph - 0.24 in Rain , Thunderstorm Thunderstorms and Rain
4:20 PM 77.0 °F - 75.0 °F 94% 29.80 in 5.0 mi SW 10.4 mph - 0.28 in Rain Light Rain
4:35 PM 77.0 °F - 75.0 °F 94% 29.80 in 10.0 mi WSW 9.2 mph - 0.29 in Rain Light Rain
4:53 PM 78.1 °F - 75.0 °F 90% 29.79 in 10.0 mi SW 6.9 mph - 0.30 in Rain Light Rain
5:18 PM 78.1 °F - 75.9 °F 93% 29.79 in 10.0 mi SW 6.9 mph - 0.00 in Rain Light Rain
5:53 PM 77.0 °F - 73.9 °F 90% 29.79 in 10.0 mi SW 6.9 mph - 0.00 in   Overcast
6:53 PM 77.0 °F - 73.9 °F 90% 29.81 in 10.0 mi SSW 8.1 mph - N/A   Mostly Cloudy
7:53 PM 77.0 °F - 75.0 °F 94% 29.83 in 10.0 mi SW 4.6 mph - N/A   Overcast
8:53 PM 78.1 °F - 75.0 °F 90% 29.84 in 10.0 mi South 3.5 mph - 0.01 in   Mostly Cloudy
9:53 PM 77.0 °F - 75.9 °F 96% 29.85 in 10.0 mi South 5.8 mph - N/A   Mostly Cloudy
10:53 PM 77.0 °F - 75.9 °F 96% 29.86 in 10.0 mi WSW 4.6 mph - N/A   Mostly Cloudy
11:53 PM 75.9 °F - 75.9 °F 100% 29.85 in 10.0 mi SW 8.1 mph - N/A   Mostly Cloudy